owner,sensor,date,latitude,longitude,vertical_datum,sea_water_practical_salinity,qcFlag 
ENP,ioos.station.NOAA.NDBC:LRKF1:1,2019-10-01T03:00:00Z,24.9820,-80.8260,1.5,38.39,11111222 
ENP,ioos.station.NOAA.NDBC:LRKF1:1,2019-10-01T04:00:00Z,24.9820,-80.8260,1.5,38.51,11111222 
ENP,ioos.station.NOAA.NDBC:LRKF1:1,2019-10-01T05:00:00Z,24.9820,-80.8260,1.5,38.74,11111222 
ENP,ioos.station.NOAA.NDBC:LRKF1:1,2019-10-01T06:00:00Z,24.9820,-80.8260,1.5,39.2,11111222 
ENP,ioos.station.NOAA.NDBC:LRKF1:1,2019-10-01T07:00:00Z,24.9820,-80.8260,1.5,39.39,11111222 
ENP,ioos.station.NOAA.NDBC:LRKF1:1,2019-10-01T08:00:00Z,24.9820,-80.8260,1.5,39.41,11111222 
ENP,ioos.station.NOAA.NDBC:LRKF1:1,2019-10-01T09:00:00Z,24.9820,-80.8260,1.5,38.85,11111222 
ENP,ioos.station.NOAA.NDBC:LRKF1:1,2019-10-01T10:00:00Z,24.9820,-80.8260,1.5,38.69,11111222 
ENP,ioos.station.NOAA.NDBC:LRKF1:1,2019-10-01T11:00:00Z,24.9820,-80.8260,1.5,38.5,11111222 
ENP,ioos.station.NOAA.NDBC:LRKF1:1,2019-10-01T12:00:00Z,24.9820,-80.8260,1.5,38.57,11111222 
ENP,ioos.station.NOAA.NDBC:LRKF1:1,2019-10-01T13:00:00Z,24.9820,-80.8260,1.5,38.63,11111222 
ENP,ioos.station.NOAA.NDBC:LRKF1:1,2019-10-01T15:00:00Z,24.9820,-80.8260,1.5,38.6,11111222 
ENP,ioos.station.NOAA.NDBC:LRKF1:1,2019-10-01T16:00:00Z,24.9820,-80.8260,1.5,38.78,11111222 
ENP,ioos.station.NOAA.NDBC:LRKF1:1,2019-10-01T17:00:00Z,24.9820,-80.8260,1.5,39.23,11111222 
ENP,ioos.station.NOAA.NDBC:LRKF1:1,2019-10-01T18:00:00Z,24.9820,-80.8260,1.5,39.59,11111222 
ENP,ioos.station.NOAA.NDBC:LRKF1:1,2019-10-01T19:00:00Z,24.9820,-80.8260,1.5,40.2,11111222 
ENP,ioos.station.NOAA.NDBC:LRKF1:1,2019-10-01T20:00:00Z,24.9820,-80.8260,1.5,40.98,11111222 
ENP,ioos.station.NOAA.NDBC:LRKF1:1,2019-10-01T21:00:00Z,24.9820,-80.8260,1.5,41.32,11111222 
ENP,ioos.station.NOAA.NDBC:LRKF1:1,2019-10-01T22:00:00Z,24.9820,-80.8260,1.5,41.1,11111222 
ENP,ioos.station.NOAA.NDBC:LRKF1:1,2019-10-01T23:00:00Z,24.9820,-80.8260,1.5,40.33,11111222 
ENP,ioos.station.NOAA.NDBC:LRKF1:1,2019-10-02T01:00:00Z,24.9820,-80.8260,1.5,39.28,11111222 
ENP,ioos.station.NOAA.NDBC:LRKF1:1,2019-10-02T03:00:00Z,24.9820,-80.8260,1.5,39.69,11111222 
ENP,ioos.station.NOAA.NDBC:LRKF1:1,2019-10-02T04:00:00Z,24.9820,-80.8260,1.5,39.97,11111222 
ENP,ioos.station.NOAA.NDBC:LRKF1:1,2019-10-02T05:00:00Z,24.9820,-80.8260,1.5,40.26,11111222 
ENP,ioos.station.NOAA.NDBC:LRKF1:1,2019-10-02T06:00:00Z,24.9820,-80.8260,1.5,40.82,11111222 
ENP,ioos.station.NOAA.NDBC:LRKF1:1,2019-10-02T07:00:00Z,24.9820,-80.8260,1.5,41.41,11111222 
ENP,ioos.station.NOAA.NDBC:LRKF1:1,2019-10-02T08:00:00Z,24.9820,-80.8260,1.5,41.54,11111222 
ENP,ioos.station.NOAA.NDBC:LRKF1:1,2019-10-02T09:00:00Z,24.9820,-80.8260,1.5,41.35,11111222 
ENP,ioos.station.NOAA.NDBC:LRKF1:1,2019-10-02T10:00:00Z,24.9820,-80.8260,1.5,40.61,11111222 
ENP,ioos.station.NOAA.NDBC:LRKF1:1,2019-10-02T11:00:00Z,24.9820,-80.8260,1.5,40.0,11111222 
ENP,ioos.station.NOAA.NDBC:LRKF1:1,2019-10-02T12:00:00Z,24.9820,-80.8260,1.5,39.56,11111222 
ENP,ioos.station.NOAA.NDBC:LRKF1:1,2019-10-02T13:00:00Z,24.9820,-80.8260,1.5,39.44,11111222 
ENP,ioos.station.NOAA.NDBC:LRKF1:1,2019-10-02T14:00:00Z,24.9820,-80.8260,1.5,39.35,11111222 
ENP,ioos.station.NOAA.NDBC:LRKF1:1,2019-10-02T16:00:00Z,24.9820,-80.8260,1.5,39.55,11111222 
ENP,ioos.station.NOAA.NDBC:LRKF1:1,2019-10-02T17:00:00Z,24.9820,-80.8260,1.5,40.67,11111222 
ENP,ioos.station.NOAA.NDBC:LRKF1:1,2019-10-02T18:00:00Z,24.9820,-80.8260,1.5,41.19,11111222 
ENP,ioos.station.NOAA.NDBC:LRKF1:1,2019-10-02T19:00:00Z,24.9820,-80.8260,1.5,41.14,11111222 
ENP,ioos.station.NOAA.NDBC:LRKF1:1,2019-10-02T20:00:00Z,24.9820,-80.8260,1.5,41.02,11111222 
ENP,ioos.station.NOAA.NDBC:LRKF1:1,2019-10-02T21:00:00Z,24.9820,-80.8260,1.5,41.14,11111222 
ENP,ioos.station.NOAA.NDBC:LRKF1:1,2019-10-02T22:00:00Z,24.9820,-80.8260,1.5,41.36,11111222 
ENP,ioos.station.NOAA.NDBC:LRKF1:1,2019-10-03T03:00:00Z,24.9820,-80.8260,1.5,41.22,11111222 
ENP,ioos.station.NOAA.NDBC:LRKF1:1,2019-10-03T04:00:00Z,24.9820,-80.8260,1.5,41.26,11111222 
ENP,ioos.station.NOAA.NDBC:LRKF1:1,2019-10-03T16:00:00Z,24.9820,-80.8260,1.5,41.24,11111222 
ENP,ioos.station.NOAA.NDBC:LRKF1:1,2019-10-03T17:00:00Z,24.9820,-80.8260,1.5,40.9,11111222 
ENP,ioos.station.NOAA.NDBC:LRKF1:1,2019-10-03T19:00:00Z,24.9820,-80.8260,1.5,41.14,11111222 
ENP,ioos.station.NOAA.NDBC:LRKF1:1,2019-10-03T20:00:00Z,24.9820,-80.8260,1.5,41.31,11111222 
ENP,ioos.station.NOAA.NDBC:LRKF1:1,2019-10-03T21:00:00Z,24.9820,-80.8260,1.5,41.27,11111222 
ENP,ioos.station.NOAA.NDBC:LRKF1:1,2019-10-03T22:00:00Z,24.9820,-80.8260,1.5,41.14,11111222 
ENP,ioos.station.NOAA.NDBC:LRKF1:1,2019-10-03T23:00:00Z,24.9820,-80.8260,1.5,41.17,11111222 
ENP,ioos.station.NOAA.NDBC:LRKF1:1,2019-10-04T01:00:00Z,24.9820,-80.8260,1.5,41.23,11111222 
ENP,ioos.station.NOAA.NDBC:LRKF1:1,2019-10-04T03:00:00Z,24.9820,-80.8260,1.5,41.26,11111222 
ENP,ioos.station.NOAA.NDBC:LRKF1:1,2019-10-04T04:00:00Z,24.9820,-80.8260,1.5,41.28,11111222 
ENP,ioos.station.NOAA.NDBC:LRKF1:1,2019-10-04T05:00:00Z,24.9820,-80.8260,1.5,41.24,11111222 
ENP,ioos.station.NOAA.NDBC:LRKF1:1,2019-10-04T06:00:00Z,24.9820,-80.8260,1.5,41.17,11111222 
ENP,ioos.station.NOAA.NDBC:LRKF1:1,2019-10-04T07:00:00Z,24.9820,-80.8260,1.5,40.98,11111222 
ENP,ioos.station.NOAA.NDBC:LRKF1:1,2019-10-04T08:00:00Z,24.9820,-80.8260,1.5,40.81,11111222 
ENP,ioos.station.NOAA.NDBC:LRKF1:1,2019-10-04T09:00:00Z,24.9820,-80.8260,1.5,40.65,11111222 
ENP,ioos.station.NOAA.NDBC:LRKF1:1,2019-10-04T10:00:00Z,24.9820,-80.8260,1.5,40.65,11111222 
ENP,ioos.station.NOAA.NDBC:LRKF1:1,2019-10-04T11:00:00Z,24.9820,-80.8260,1.5,40.97,11111222 
ENP,ioos.station.NOAA.NDBC:LRKF1:1,2019-10-04T12:00:00Z,24.9820,-80.8260,1.5,41.13,11111222 
ENP,ioos.station.NOAA.NDBC:LRKF1:1,2019-10-04T13:00:00Z,24.9820,-80.8260,1.5,41.19,11111222 
ENP,ioos.station.NOAA.NDBC:LRKF1:1,2019-10-04T14:00:00Z,24.9820,-80.8260,1.5,41.26,11111222 
ENP,ioos.station.NOAA.NDBC:LRKF1:1,2019-10-04T15:00:00Z,24.9820,-80.8260,1.5,41.21,11111222 
ENP,ioos.station.NOAA.NDBC:LRKF1:1,2019-10-04T16:00:00Z,24.9820,-80.8260,1.5,41.17,11111222 
ENP,ioos.station.NOAA.NDBC:LRKF1:1,2019-10-04T17:00:00Z,24.9820,-80.8260,1.5,41.32,11111222 
ENP,ioos.station.NOAA.NDBC:LRKF1:1,2019-10-04T18:00:00Z,24.9820,-80.8260,1.5,41.17,11111222 
ENP,ioos.station.NOAA.NDBC:LRKF1:1,2019-10-04T19:00:00Z,24.9820,-80.8260,1.5,40.74,11111222 
ENP,ioos.station.NOAA.NDBC:LRKF1:1,2019-10-04T21:00:00Z,24.9820,-80.8260,1.5,40.39,11111222 
ENP,ioos.station.NOAA.NDBC:LRKF1:1,2019-10-04T22:00:00Z,24.9820,-80.8260,1.5,40.33,11111222 
ENP,ioos.station.NOAA.NDBC:LRKF1:1,2019-10-04T23:00:00Z,24.9820,-80.8260,1.5,40.4,11111222 
ENP,ioos.station.NOAA.NDBC:LRKF1:1,2019-10-05T01:00:00Z,24.9820,-80.8260,1.5,40.3,11111222 
ENP,ioos.station.NOAA.NDBC:LRKF1:1,2019-10-05T03:00:00Z,24.9820,-80.8260,1.5,40.42,11111222 
ENP,ioos.station.NOAA.NDBC:LRKF1:1,2019-10-05T04:00:00Z,24.9820,-80.8260,1.5,40.46,11111222 
ENP,ioos.station.NOAA.NDBC:LRKF1:1,2019-10-05T05:00:00Z,24.9820,-80.8260,1.5,40.45,11111222 
ENP,ioos.station.NOAA.NDBC:LRKF1:1,2019-10-05T06:00:00Z,24.9820,-80.8260,1.5,40.34,11111222 
ENP,ioos.station.NOAA.NDBC:LRKF1:1,2019-10-05T07:00:00Z,24.9820,-80.8260,1.5,40.33,11111222 
ENP,ioos.station.NOAA.NDBC:LRKF1:1,2019-10-05T08:00:00Z,24.9820,-80.8260,1.5,40.27,11111222 
ENP,ioos.station.NOAA.NDBC:LRKF1:1,2019-10-05T09:00:00Z,24.9820,-80.8260,1.5,40.14,11111222 
ENP,ioos.station.NOAA.NDBC:LRKF1:1,2019-10-05T10:00:00Z,24.9820,-80.8260,1.5,40.21,11111222 
ENP,ioos.station.NOAA.NDBC:LRKF1:1,2019-10-05T11:00:00Z,24.9820,-80.8260,1.5,40.19,11111222 
ENP,ioos.station.NOAA.NDBC:LRKF1:1,2019-10-05T12:00:00Z,24.9820,-80.8260,1.5,40.33,11111222 
ENP,ioos.station.NOAA.NDBC:LRKF1:1,2019-10-05T13:00:00Z,24.9820,-80.8260,1.5,40.44,11111222 
ENP,ioos.station.NOAA.NDBC:LRKF1:1,2019-10-05T14:00:00Z,24.9820,-80.8260,1.5,40.43,11111222 
ENP,ioos.station.NOAA.NDBC:LRKF1:1,2019-10-05T15:00:00Z,24.9820,-80.8260,1.5,40.52,11111222 
ENP,ioos.station.NOAA.NDBC:LRKF1:1,2019-10-05T16:00:00Z,24.9820,-80.8260,1.5,40.59,11111222 
ENP,ioos.station.NOAA.NDBC:LRKF1:1,2019-10-05T17:00:00Z,24.9820,-80.8260,1.5,40.55,11111222 
ENP,ioos.station.NOAA.NDBC:LRKF1:1,2019-10-05T18:00:00Z,24.9820,-80.8260,1.5,40.67,11111222 
ENP,ioos.station.NOAA.NDBC:LRKF1:1,2019-10-05T19:00:00Z,24.9820,-80.8260,1.5,40.94,11111222 
ENP,ioos.station.NOAA.NDBC:LRKF1:1,2019-10-05T20:00:00Z,24.9820,-80.8260,1.5,40.72,11111222 
ENP,ioos.station.NOAA.NDBC:LRKF1:1,2019-10-05T21:00:00Z,24.9820,-80.8260,1.5,40.64,11111222 
ENP,ioos.station.NOAA.NDBC:LRKF1:1,2019-10-05T22:00:00Z,24.9820,-80.8260,1.5,40.34,11111222 
ENP,ioos.station.NOAA.NDBC:LRKF1:1,2019-10-05T23:00:00Z,24.9820,-80.8260,1.5,40.19,11111222 
ENP,ioos.station.NOAA.NDBC:LRKF1:1,2019-10-06T01:00:00Z,24.9820,-80.8260,1.5,40.03,11111222 
ENP,ioos.station.NOAA.NDBC:LRKF1:1,2019-10-06T03:00:00Z,24.9820,-80.8260,1.5,40.01,11111222 
ENP,ioos.station.NOAA.NDBC:LRKF1:1,2019-10-06T04:00:00Z,24.9820,-80.8260,1.5,39.94,11111222 
ENP,ioos.station.NOAA.NDBC:LRKF1:1,2019-10-06T05:00:00Z,24.9820,-80.8260,1.5,39.93,11111222 
ENP,ioos.station.NOAA.NDBC:LRKF1:1,2019-10-06T06:00:00Z,24.9820,-80.8260,1.5,39.96,11111222 
ENP,ioos.station.NOAA.NDBC:LRKF1:1,2019-10-06T07:00:00Z,24.9820,-80.8260,1.5,39.87,11111222 
ENP,ioos.station.NOAA.NDBC:LRKF1:1,2019-10-06T08:00:00Z,24.9820,-80.8260,1.5,39.63,11111222 
ENP,ioos.station.NOAA.NDBC:LRKF1:1,2019-10-06T09:00:00Z,24.9820,-80.8260,1.5,39.43,11111222 
ENP,ioos.station.NOAA.NDBC:LRKF1:1,2019-10-06T10:00:00Z,24.9820,-80.8260,1.5,39.26,11111222 
ENP,ioos.station.NOAA.NDBC:LRKF1:1,2019-10-06T11:00:00Z,24.9820,-80.8260,1.5,39.12,11111222 
ENP,ioos.station.NOAA.NDBC:LRKF1:1,2019-10-06T12:00:00Z,24.9820,-80.8260,1.5,39.11,11111222 
ENP,ioos.station.NOAA.NDBC:LRKF1:1,2019-10-06T13:00:00Z,24.9820,-80.8260,1.5,39.31,11111222 
ENP,ioos.station.NOAA.NDBC:LRKF1:1,2019-10-06T14:00:00Z,24.9820,-80.8260,1.5,39.53,11111222 
ENP,ioos.station.NOAA.NDBC:LRKF1:1,2019-10-06T15:00:00Z,24.9820,-80.8260,1.5,39.78,11111222 
ENP,ioos.station.NOAA.NDBC:LRKF1:1,2019-10-06T16:00:00Z,24.9820,-80.8260,1.5,39.88,11111222 
ENP,ioos.station.NOAA.NDBC:LRKF1:1,2019-10-06T17:00:00Z,24.9820,-80.8260,1.5,39.67,11111222 
ENP,ioos.station.NOAA.NDBC:LRKF1:1,2019-10-06T18:00:00Z,24.9820,-80.8260,1.5,39.84,11111222 
ENP,ioos.station.NOAA.NDBC:LRKF1:1,2019-10-06T19:00:00Z,24.9820,-80.8260,1.5,40.23,11111222 
ENP,ioos.station.NOAA.NDBC:LRKF1:1,2019-10-06T20:00:00Z,24.9820,-80.8260,1.5,40.3,11111222 
ENP,ioos.station.NOAA.NDBC:LRKF1:1,2019-10-06T21:00:00Z,24.9820,-80.8260,1.5,39.69,11111222 
ENP,ioos.station.NOAA.NDBC:LRKF1:1,2019-10-06T22:00:00Z,24.9820,-80.8260,1.5,39.33,11111222 
ENP,ioos.station.NOAA.NDBC:LRKF1:1,2019-10-06T23:00:00Z,24.9820,-80.8260,1.5,39.35,11111222 
ENP,ioos.station.NOAA.NDBC:LRKF1:1,2019-10-07T01:00:00Z,24.9820,-80.8260,1.5,39.25,11111222 
ENP,ioos.station.NOAA.NDBC:LRKF1:1,2019-10-07T03:00:00Z,24.9820,-80.8260,1.5,39.38,11111222 
ENP,ioos.station.NOAA.NDBC:LRKF1:1,2019-10-07T04:00:00Z,24.9820,-80.8260,1.5,39.38,11111222 
ENP,ioos.station.NOAA.NDBC:LRKF1:1,2019-10-07T05:00:00Z,24.9820,-80.8260,1.5,39.35,11111222 
ENP,ioos.station.NOAA.NDBC:LRKF1:1,2019-10-07T06:00:00Z,24.9820,-80.8260,1.5,39.42,11111222 
ENP,ioos.station.NOAA.NDBC:LRKF1:1,2019-10-07T07:00:00Z,24.9820,-80.8260,1.5,39.5,11111222 
ENP,ioos.station.NOAA.NDBC:LRKF1:1,2019-10-07T08:00:00Z,24.9820,-80.8260,1.5,39.5,11111222 
ENP,ioos.station.NOAA.NDBC:LRKF1:1,2019-10-07T09:00:00Z,24.9820,-80.8260,1.5,39.46,11111222 
ENP,ioos.station.NOAA.NDBC:LRKF1:1,2019-10-07T10:00:00Z,24.9820,-80.8260,1.5,39.42,11111222 
ENP,ioos.station.NOAA.NDBC:LRKF1:1,2019-10-07T11:00:00Z,24.9820,-80.8260,1.5,39.32,11111222 
ENP,ioos.station.NOAA.NDBC:LRKF1:1,2019-10-07T13:00:00Z,24.9820,-80.8260,1.5,39.3,11111222 
ENP,ioos.station.NOAA.NDBC:LRKF1:1,2019-10-07T14:00:00Z,24.9820,-80.8260,1.5,39.33,11111222 
ENP,ioos.station.NOAA.NDBC:LRKF1:1,2019-10-07T15:00:00Z,24.9820,-80.8260,1.5,39.44,11111222 
ENP,ioos.station.NOAA.NDBC:LRKF1:1,2019-10-07T16:00:00Z,24.9820,-80.8260,1.5,39.47,11111222 
ENP,ioos.station.NOAA.NDBC:LRKF1:1,2019-10-07T17:00:00Z,24.9820,-80.8260,1.5,39.53,11111222 
ENP,ioos.station.NOAA.NDBC:LRKF1:1,2019-10-07T18:00:00Z,24.9820,-80.8260,1.5,39.84,11111222 
ENP,ioos.station.NOAA.NDBC:LRKF1:1,2019-10-07T19:00:00Z,24.9820,-80.8260,1.5,39.91,11111222 
ENP,ioos.station.NOAA.NDBC:LRKF1:1,2019-10-07T20:00:00Z,24.9820,-80.8260,1.5,39.81,11111222 
ENP,ioos.station.NOAA.NDBC:LRKF1:1,2019-10-08T01:00:00Z,24.9820,-80.8260,1.5,39.42,11111222 
ENP,ioos.station.NOAA.NDBC:LRKF1:1,2019-10-08T03:00:00Z,24.9820,-80.8260,1.5,39.31,11111222 
ENP,ioos.station.NOAA.NDBC:LRKF1:1,2019-10-08T05:00:00Z,24.9820,-80.8260,1.5,39.16,11111222 
ENP,ioos.station.NOAA.NDBC:LRKF1:1,2019-10-08T06:00:00Z,24.9820,-80.8260,1.5,39.4,11111222 
ENP,ioos.station.NOAA.NDBC:LRKF1:1,2019-10-08T07:00:00Z,24.9820,-80.8260,1.5,39.59,11111222 
ENP,ioos.station.NOAA.NDBC:LRKF1:1,2019-10-08T08:00:00Z,24.9820,-80.8260,1.5,39.66,11111222 
ENP,ioos.station.NOAA.NDBC:LRKF1:1,2019-10-08T09:00:00Z,24.9820,-80.8260,1.5,39.7,11111222 
ENP,ioos.station.NOAA.NDBC:LRKF1:1,2019-10-08T10:00:00Z,24.9820,-80.8260,1.5,39.65,11111222 
ENP,ioos.station.NOAA.NDBC:LRKF1:1,2019-10-08T11:00:00Z,24.9820,-80.8260,1.5,39.57,11111222 
ENP,ioos.station.NOAA.NDBC:LRKF1:1,2019-10-08T13:00:00Z,24.9820,-80.8260,1.5,39.53,11111222 
ENP,ioos.station.NOAA.NDBC:LRKF1:1,2019-10-08T14:00:00Z,24.9820,-80.8260,1.5,39.5,11111222 
ENP,ioos.station.NOAA.NDBC:LRKF1:1,2019-10-08T15:00:00Z,24.9820,-80.8260,1.5,39.41,11111222 
ENP,ioos.station.NOAA.NDBC:LRKF1:1,2019-10-08T16:00:00Z,24.9820,-80.8260,1.5,39.77,11111222 
ENP,ioos.station.NOAA.NDBC:LRKF1:1,2019-10-08T17:00:00Z,24.9820,-80.8260,1.5,40.2,11111222 
ENP,ioos.station.NOAA.NDBC:LRKF1:1,2019-10-08T18:00:00Z,24.9820,-80.8260,1.5,40.32,11111222 
ENP,ioos.station.NOAA.NDBC:LRKF1:1,2019-10-08T19:00:00Z,24.9820,-80.8260,1.5,40.33,11111222 
ENP,ioos.station.NOAA.NDBC:LRKF1:1,2019-10-08T20:00:00Z,24.9820,-80.8260,1.5,40.45,11111222 
ENP,ioos.station.NOAA.NDBC:LRKF1:1,2019-10-08T21:00:00Z,24.9820,-80.8260,1.5,40.38,11111222 
ENP,ioos.station.NOAA.NDBC:LRKF1:1,2019-10-08T22:00:00Z,24.9820,-80.8260,1.5,40.38,11111222 
ENP,ioos.station.NOAA.NDBC:LRKF1:1,2019-10-08T23:00:00Z,24.9820,-80.8260,1.5,40.39,11111222 
ENP,ioos.station.NOAA.NDBC:LRKF1:1,2019-10-09T01:00:00Z,24.9820,-80.8260,1.5,40.17,11111222 
ENP,ioos.station.NOAA.NDBC:LRKF1:1,2019-10-09T03:00:00Z,24.9820,-80.8260,1.5,39.94,11111222 
ENP,ioos.station.NOAA.NDBC:LRKF1:1,2019-10-09T04:00:00Z,24.9820,-80.8260,1.5,40.11,11111222 
ENP,ioos.station.NOAA.NDBC:LRKF1:1,2019-10-09T05:00:00Z,24.9820,-80.8260,1.5,40.32,11111222 
ENP,ioos.station.NOAA.NDBC:LRKF1:1,2019-10-09T06:00:00Z,24.9820,-80.8260,1.5,40.45,11111222 
ENP,ioos.station.NOAA.NDBC:LRKF1:1,2019-10-09T07:00:00Z,24.9820,-80.8260,1.5,40.67,11111222 
ENP,ioos.station.NOAA.NDBC:LRKF1:1,2019-10-09T08:00:00Z,24.9820,-80.8260,1.5,40.64,11111222 
ENP,ioos.station.NOAA.NDBC:LRKF1:1,2019-10-09T09:00:00Z,24.9820,-80.8260,1.5,40.73,11111222 
ENP,ioos.station.NOAA.NDBC:LRKF1:1,2019-10-09T10:00:00Z,24.9820,-80.8260,1.5,40.59,11111222 
ENP,ioos.station.NOAA.NDBC:LRKF1:1,2019-10-09T12:00:00Z,24.9820,-80.8260,1.5,40.42,11111222 
ENP,ioos.station.NOAA.NDBC:LRKF1:1,2019-10-09T13:00:00Z,24.9820,-80.8260,1.5,40.12,11111222 
ENP,ioos.station.NOAA.NDBC:LRKF1:1,2019-10-09T14:00:00Z,24.9820,-80.8260,1.5,39.91,11111222 
ENP,ioos.station.NOAA.NDBC:LRKF1:1,2019-10-09T15:00:00Z,24.9820,-80.8260,1.5,39.95,11111222 
ENP,ioos.station.NOAA.NDBC:LRKF1:1,2019-10-09T16:00:00Z,24.9820,-80.8260,1.5,40.11,11111222 
ENP,ioos.station.NOAA.NDBC:LRKF1:1,2019-10-09T17:00:00Z,24.9820,-80.8260,1.5,40.45,11111222 
ENP,ioos.station.NOAA.NDBC:LRKF1:1,2019-10-09T18:00:00Z,24.9820,-80.8260,1.5,40.58,11111222 
ENP,ioos.station.NOAA.NDBC:LRKF1:1,2019-10-09T19:00:00Z,24.9820,-80.8260,1.5,40.67,11111222 
ENP,ioos.station.NOAA.NDBC:LRKF1:1,2019-10-09T20:00:00Z,24.9820,-80.8260,1.5,40.67,11111222 
ENP,ioos.station.NOAA.NDBC:LRKF1:1,2019-10-09T22:00:00Z,24.9820,-80.8260,1.5,40.67,11111222 
ENP,ioos.station.NOAA.NDBC:LRKF1:1,2019-10-10T01:00:00Z,24.9820,-80.8260,1.5,40.21,11111222 
ENP,ioos.station.NOAA.NDBC:LRKF1:1,2019-10-10T03:00:00Z,24.9820,-80.8260,1.5,40.11,11111222 
ENP,ioos.station.NOAA.NDBC:LRKF1:1,2019-10-10T04:00:00Z,24.9820,-80.8260,1.5,40.23,11111222 
ENP,ioos.station.NOAA.NDBC:LRKF1:1,2019-10-10T05:00:00Z,24.9820,-80.8260,1.5,40.27,11111222 
ENP,ioos.station.NOAA.NDBC:LRKF1:1,2019-10-10T06:00:00Z,24.9820,-80.8260,1.5,40.19,11111222 
ENP,ioos.station.NOAA.NDBC:LRKF1:1,2019-10-10T07:00:00Z,24.9820,-80.8260,1.5,40.31,11111222 
ENP,ioos.station.NOAA.NDBC:LRKF1:1,2019-10-10T08:00:00Z,24.9820,-80.8260,1.5,40.73,11111222 
ENP,ioos.station.NOAA.NDBC:LRKF1:1,2019-10-10T09:00:00Z,24.9820,-80.8260,1.5,40.58,11111222 
ENP,ioos.station.NOAA.NDBC:LRKF1:1,2019-10-10T10:00:00Z,24.9820,-80.8260,1.5,40.66,11111222 
ENP,ioos.station.NOAA.NDBC:LRKF1:1,2019-10-10T11:00:00Z,24.9820,-80.8260,1.5,40.57,11111222 
ENP,ioos.station.NOAA.NDBC:LRKF1:1,2019-10-10T12:00:00Z,24.9820,-80.8260,1.5,40.45,11111222 
ENP,ioos.station.NOAA.NDBC:LRKF1:1,2019-10-10T14:00:00Z,24.9820,-80.8260,1.5,40.26,11111222 
ENP,ioos.station.NOAA.NDBC:LRKF1:1,2019-10-10T15:00:00Z,24.9820,-80.8260,1.5,40.4,11111222 
ENP,ioos.station.NOAA.NDBC:LRKF1:1,2019-10-10T16:00:00Z,24.9820,-80.8260,1.5,40.27,11111222 
ENP,ioos.station.NOAA.NDBC:LRKF1:1,2019-10-10T17:00:00Z,24.9820,-80.8260,1.5,40.22,11111222 
ENP,ioos.station.NOAA.NDBC:LRKF1:1,2019-10-10T18:00:00Z,24.9820,-80.8260,1.5,40.52,11111222 
ENP,ioos.station.NOAA.NDBC:LRKF1:1,2019-10-10T19:00:00Z,24.9820,-80.8260,1.5,40.72,11111222 
ENP,ioos.station.NOAA.NDBC:LRKF1:1,2019-10-10T20:00:00Z,24.9820,-80.8260,1.5,40.91,11111222 
ENP,ioos.station.NOAA.NDBC:LRKF1:1,2019-10-10T21:00:00Z,24.9820,-80.8260,1.5,40.75,11111222 
ENP,ioos.station.NOAA.NDBC:LRKF1:1,2019-10-10T22:00:00Z,24.9820,-80.8260,1.5,40.79,11111222 
ENP,ioos.station.NOAA.NDBC:LRKF1:1,2019-10-10T23:00:00Z,24.9820,-80.8260,1.5,40.77,11111222 
ENP,ioos.station.NOAA.NDBC:LRKF1:1,2019-10-11T00:00:00Z,24.9820,-80.8260,1.5,40.73,11111222 
ENP,ioos.station.NOAA.NDBC:LRKF1:1,2019-10-11T01:00:00Z,24.9820,-80.8260,1.5,40.69,11111222 
ENP,ioos.station.NOAA.NDBC:LRKF1:1,2019-10-11T03:00:00Z,24.9820,-80.8260,1.5,40.83,11111222 
ENP,ioos.station.NOAA.NDBC:LRKF1:1,2019-10-11T04:00:00Z,24.9820,-80.8260,1.5,40.81,11111222 
ENP,ioos.station.NOAA.NDBC:LRKF1:1,2019-10-11T05:00:00Z,24.9820,-80.8260,1.5,40.97,11111222 
ENP,ioos.station.NOAA.NDBC:LRKF1:1,2019-10-11T06:00:00Z,24.9820,-80.8260,1.5,40.91,11111222 
ENP,ioos.station.NOAA.NDBC:LRKF1:1,2019-10-11T07:00:00Z,24.9820,-80.8260,1.5,40.83,11111222 
ENP,ioos.station.NOAA.NDBC:LRKF1:1,2019-10-11T08:00:00Z,24.9820,-80.8260,1.5,40.87,11111222 
ENP,ioos.station.NOAA.NDBC:LRKF1:1,2019-10-11T09:00:00Z,24.9820,-80.8260,1.5,40.79,11111222 
ENP,ioos.station.NOAA.NDBC:LRKF1:1,2019-10-11T10:00:00Z,24.9820,-80.8260,1.5,40.8,11111222 
ENP,ioos.station.NOAA.NDBC:LRKF1:1,2019-10-11T11:00:00Z,24.9820,-80.8260,1.5,40.79,11111222 
ENP,ioos.station.NOAA.NDBC:LRKF1:1,2019-10-11T12:00:00Z,24.9820,-80.8260,1.5,40.92,11111222 
ENP,ioos.station.NOAA.NDBC:LRKF1:1,2019-10-11T13:00:00Z,24.9820,-80.8260,1.5,40.96,11111222 
ENP,ioos.station.NOAA.NDBC:LRKF1:1,2019-10-11T14:00:00Z,24.9820,-80.8260,1.5,41.01,11111222 
ENP,ioos.station.NOAA.NDBC:LRKF1:1,2019-10-11T15:00:00Z,24.9820,-80.8260,1.5,40.85,11111222 
ENP,ioos.station.NOAA.NDBC:LRKF1:1,2019-10-11T16:00:00Z,24.9820,-80.8260,1.5,40.86,11111222 
ENP,ioos.station.NOAA.NDBC:LRKF1:1,2019-10-11T17:00:00Z,24.9820,-80.8260,1.5,40.91,11111222 
ENP,ioos.station.NOAA.NDBC:LRKF1:1,2019-10-11T18:00:00Z,24.9820,-80.8260,1.5,40.83,11111222 
ENP,ioos.station.NOAA.NDBC:LRKF1:1,2019-10-11T19:00:00Z,24.9820,-80.8260,1.5,40.95,11111222 
ENP,ioos.station.NOAA.NDBC:LRKF1:1,2019-10-11T20:00:00Z,24.9820,-80.8260,1.5,40.77,11111222 
ENP,ioos.station.NOAA.NDBC:LRKF1:1,2019-10-11T21:00:00Z,24.9820,-80.8260,1.5,40.73,11111222 
ENP,ioos.station.NOAA.NDBC:LRKF1:1,2019-10-11T22:00:00Z,24.9820,-80.8260,1.5,40.77,11111222 
ENP,ioos.station.NOAA.NDBC:LRKF1:1,2019-10-11T23:00:00Z,24.9820,-80.8260,1.5,40.9,11111222 
ENP,ioos.station.NOAA.NDBC:LRKF1:1,2019-10-12T00:00:00Z,24.9820,-80.8260,1.5,41.07,11111222 
ENP,ioos.station.NOAA.NDBC:LRKF1:1,2019-10-12T01:00:00Z,24.9820,-80.8260,1.5,40.92,11111222 
ENP,ioos.station.NOAA.NDBC:LRKF1:1,2019-10-12T03:00:00Z,24.9820,-80.8260,1.5,40.71,11111222 
ENP,ioos.station.NOAA.NDBC:LRKF1:1,2019-10-12T04:00:00Z,24.9820,-80.8260,1.5,40.84,11111222 
ENP,ioos.station.NOAA.NDBC:LRKF1:1,2019-10-12T05:00:00Z,24.9820,-80.8260,1.5,40.83,11111222 
ENP,ioos.station.NOAA.NDBC:LRKF1:1,2019-10-12T06:00:00Z,24.9820,-80.8260,1.5,40.83,11111222 
ENP,ioos.station.NOAA.NDBC:LRKF1:1,2019-10-12T07:00:00Z,24.9820,-80.8260,1.5,40.83,11111222 
ENP,ioos.station.NOAA.NDBC:LRKF1:1,2019-10-12T08:00:00Z,24.9820,-80.8260,1.5,40.83,11111222 
ENP,ioos.station.NOAA.NDBC:LRKF1:1,2019-10-12T09:00:00Z,24.9820,-80.8260,1.5,41.0,11111222 
ENP,ioos.station.NOAA.NDBC:LRKF1:1,2019-10-12T10:00:00Z,24.9820,-80.8260,1.5,41.04,11111222 
ENP,ioos.station.NOAA.NDBC:LRKF1:1,2019-10-12T11:00:00Z,24.9820,-80.8260,1.5,40.93,11111222 
ENP,ioos.station.NOAA.NDBC:LRKF1:1,2019-10-12T12:00:00Z,24.9820,-80.8260,1.5,40.82,11111222 
ENP,ioos.station.NOAA.NDBC:LRKF1:1,2019-10-12T13:00:00Z,24.9820,-80.8260,1.5,40.83,11111222 
ENP,ioos.station.NOAA.NDBC:LRKF1:1,2019-10-12T14:00:00Z,24.9820,-80.8260,1.5,40.65,11111222 
ENP,ioos.station.NOAA.NDBC:LRKF1:1,2019-10-12T15:00:00Z,24.9820,-80.8260,1.5,40.86,11111222 
ENP,ioos.station.NOAA.NDBC:LRKF1:1,2019-10-12T16:00:00Z,24.9820,-80.8260,1.5,41.17,11111222 
ENP,ioos.station.NOAA.NDBC:LRKF1:1,2019-10-12T17:00:00Z,24.9820,-80.8260,1.5,41.08,11111222 
ENP,ioos.station.NOAA.NDBC:LRKF1:1,2019-10-12T18:00:00Z,24.9820,-80.8260,1.5,41.01,11111222 
ENP,ioos.station.NOAA.NDBC:LRKF1:1,2019-10-12T19:00:00Z,24.9820,-80.8260,1.5,41.0,11111222 
ENP,ioos.station.NOAA.NDBC:LRKF1:1,2019-10-12T20:00:00Z,24.9820,-80.8260,1.5,40.9,11111222 
ENP,ioos.station.NOAA.NDBC:LRKF1:1,2019-10-12T21:00:00Z,24.9820,-80.8260,1.5,40.74,11111222 
ENP,ioos.station.NOAA.NDBC:LRKF1:1,2019-10-12T22:00:00Z,24.9820,-80.8260,1.5,40.66,11111222 
ENP,ioos.station.NOAA.NDBC:LRKF1:1,2019-10-12T23:00:00Z,24.9820,-80.8260,1.5,40.68,11111222 
ENP,ioos.station.NOAA.NDBC:LRKF1:1,2019-10-13T00:00:00Z,24.9820,-80.8260,1.5,40.57,11111222 
ENP,ioos.station.NOAA.NDBC:LRKF1:1,2019-10-13T01:00:00Z,24.9820,-80.8260,1.5,40.68,11111222 
ENP,ioos.station.NOAA.NDBC:LRKF1:1,2019-10-13T03:00:00Z,24.9820,-80.8260,1.5,41.16,11111222 
ENP,ioos.station.NOAA.NDBC:LRKF1:1,2019-10-13T04:00:00Z,24.9820,-80.8260,1.5,40.83,11111222 
ENP,ioos.station.NOAA.NDBC:LRKF1:1,2019-10-13T05:00:00Z,24.9820,-80.8260,1.5,40.6,11111222 
ENP,ioos.station.NOAA.NDBC:LRKF1:1,2019-10-13T06:00:00Z,24.9820,-80.8260,1.5,40.55,11111222 
ENP,ioos.station.NOAA.NDBC:LRKF1:1,2019-10-13T07:00:00Z,24.9820,-80.8260,1.5,40.61,11111222 
ENP,ioos.station.NOAA.NDBC:LRKF1:1,2019-10-13T08:00:00Z,24.9820,-80.8260,1.5,40.62,11111222 
ENP,ioos.station.NOAA.NDBC:LRKF1:1,2019-10-13T09:00:00Z,24.9820,-80.8260,1.5,40.76,11111222 
ENP,ioos.station.NOAA.NDBC:LRKF1:1,2019-10-13T10:00:00Z,24.9820,-80.8260,1.5,40.7,11111222 
ENP,ioos.station.NOAA.NDBC:LRKF1:1,2019-10-13T11:00:00Z,24.9820,-80.8260,1.5,40.68,11111222 
ENP,ioos.station.NOAA.NDBC:LRKF1:1,2019-10-13T12:00:00Z,24.9820,-80.8260,1.5,40.61,11111222 
ENP,ioos.station.NOAA.NDBC:LRKF1:1,2019-10-13T13:00:00Z,24.9820,-80.8260,1.5,40.74,11111222 
ENP,ioos.station.NOAA.NDBC:LRKF1:1,2019-10-13T14:00:00Z,24.9820,-80.8260,1.5,40.5,11111222 
ENP,ioos.station.NOAA.NDBC:LRKF1:1,2019-10-13T15:00:00Z,24.9820,-80.8260,1.5,40.21,11111222 
ENP,ioos.station.NOAA.NDBC:LRKF1:1,2019-10-13T16:00:00Z,24.9820,-80.8260,1.5,40.14,11111222 
ENP,ioos.station.NOAA.NDBC:LRKF1:1,2019-10-13T17:00:00Z,24.9820,-80.8260,1.5,39.9,11111222 
ENP,ioos.station.NOAA.NDBC:LRKF1:1,2019-10-13T18:00:00Z,24.9820,-80.8260,1.5,39.74,11111222 
ENP,ioos.station.NOAA.NDBC:LRKF1:1,2019-10-13T19:00:00Z,24.9820,-80.8260,1.5,39.9,11111222 